FENGYUN 1C DEB, 41832

Orbit data source: Space-Track

FENGYUN 1C DEB, 41832 is space debris in LEO originally from a launch on Mon, 10 May 1999 UTC launched from the Taiyaun Space Center, China (TSC). Fengyun 1C debris stems from the Chinese weather satellite Fengyun-1C, which was intentionally destroyed by a Chinese anti-satellite missile in 2007. This event dramatically increased the amount of space debris, with thousands of trackable fragments posing hazards to satellites and human spaceflight. The Fengyun 1C debris cloud has become a focal point in discussions about space sustainability and the need for international regulations to prevent the creation of new debris.

Loading next visibility...
FENGYUN 1C DEB details
Identifier
41832, 1999-025EYK
Orbit
LEO
Last TLE update4 days ago
Origin
Flag of CNCASC (CN / PRC)
ManufacturerUnknown
MissionSpacecraft
Bus & MotorUnknown
MassUnknown
Launch date (UTC)
1999-05-10 (26 years ago)
Launch vehicleUnknown
Launch site
Taiyaun Space Center, China (TSC)
Object type
Payload
Rocket body
Debris
Shape & HBRUnknown
Radar Cross SectionSmall (<0.1 m²)

Expand to show TLE details & history

TLE from 4 days ago
0 FENGYUN 1C DEB
1 41832U 99025EYK 24335.64863088  .00008757  00000-0  40259-2 0  9992
2 41832  98.7578  36.6491 0057791 235.3041 124.2683 14.20506187419891
Epoch: 2024-11-30T15:34Z
Definitive object data (Epoch: 2024-11-30T15:34:01.708Z)
Latitude0.00002°
Longitude93.14381°
Altitude850.158 km
Speed7.415 km/s
True Right ascension02h 26m 35s
True Declination0° 00' 00"
Sunlit
Object was in full shadow at TLE epoch
Visualization TLE readout
Latitude-48.85831°
Longitude-93.28619°
Altitude800.856 km
Speed7.473 km/s
Apparent Right ascension16h 16m 36s
Apparent Declination-49° 34' 55"
Sunlit
Object is in daylight
Visualization observer readout
Local Sidereal Time06:27:06
Azimuth123.748° SE
Elevation-65.141°
Doppler factor1
Orbital elements
Apogee altitude862.405 km
Perigee altitude779.198 km
Semi-major axis7,198.939 km
Eccentricity0.0057791
Inclination98.7578°
RAAN36.6491°
Arg. of periapsis235.3041°
True anomaly124.81335°
Mean anomaly124.2683°
Eccentric anomaly124.54105°
Mean motion3.55337 °/min
BSTAR0.0040259
Orbital period101.31 mins
Loading maneuver chart data...
Loading historical data...
Loading historical data...
Loading historical data...
Loading historical data...
Loading historical data...
Loading historical data...
Loading historical data...

FENGYUN 1C DEB Visibility forecast

Observer location: undefined°, undefined

Span
Click to sort rows by Start time (UTC) header in descending order
Start Az.
Max El. time (UTC)
Max El. Az.
Max El.
End time (UTC)
End Az.
9 mins2024-12-04 16:30:58.126Z32.891° NE2024-12-04 16:34:58.126Z86.511° E30.926°2024-12-04 16:39:58.126Z163.656° S
7 mins2024-12-04 18:11:58.126Z342.698° N2024-12-04 18:14:58.126Z301.447° NW24.433°2024-12-04 18:18:58.126Z243.441° WSW
9 mins2024-12-05 03:52:58.126Z147.599° SSE2024-12-05 03:56:58.126Z82.33° E40.886°2024-12-05 04:01:58.126Z355.336° N
5 mins2024-12-05 05:35:58.126Z246.444° WSW2024-12-05 05:37:58.126Z272.44° WNW16.85°2024-12-05 05:40:58.126Z306.695° NW
|